Logansport, IN

9:10 AM EDT on June 28, 2017 (GMT -0400)
Logansport Municipal

Weather History for KGGP - November, 2012

Change the Weather History Date:

Sunday, November 25, 2012

  Actual Average Record
Temperature  
Mean Temperature 36 °F -  
Max Temperature 44 °F 44 °F 53 °F (2015)
Min Temperature 28 °F 28 °F 19 °F (2013)
Degree Days  
Heating Degree Days 29    
Moisture  
Dew Point 26 °F    
Average Humidity 71    
Maximum Humidity 81    
Minimum Humidity 53    
Precipitation  
Precipitation 0.00 in - - ()
Sea Level Pressure  
Sea Level Pressure 29.95 in    
Wind  
Wind Speed 8 mph ()    
Max Wind Speed 15 mph    
Max Gust Speed 20 mph    
Visibility 10.0 miles    
Events      
Averages and records for this station are not official NWS values.
T = Trace of Precipitation, MM = Missing Value Source: Averaged Metar Reports

Daily Weather History Graph

Daily Weather History Graph

Search for Another Location

Airport or City:

Trip Planner

Search our weather history database for the weather conditions in past years. The results will help you decide how hot, cold, wet, or windy it might be!

Date:

Astronomy

Nov. 25, 2012 Rise Set
Actual Time 7:44 AM EST 5:20 PM EST
Civil Twilight 7:14 AM EST 5:50 PM EST
Nautical Twilight 6:40 AM EST 6:24 PM EST
Astronomical Twilight 6:07 AM EST 6:57 PM EST
Moon 3:38 PM EST (11/25) 4:57 AM EST (11/25)
Length of Visible Light 10h 36m
Length of Day
9h 36m
Waxing Gibbous, 93% of the Moon is Illuminated
Nov 25
Waxing Gibbous
Nov 28
Full
Dec 6
Last Quarter
Dec 13
New
Dec 20
First Quarter

Hourly Weather History & Observations

Time (EST) Temp. Windchill Dew Point Humidity Pressure Visibility Wind Dir Wind Speed Gust Speed Precip Events Conditions
12:15 AM 28.4 °F 21.2 °F 23.0 °F 80% 30.06 in 10.0 mi South 6.9 mph - N/A   Scattered Clouds
12:35 AM 28.4 °F 20.4 °F 21.2 °F 74% 30.07 in 10.0 mi SSW 8.1 mph - N/A   Clear
12:55 AM 28.4 °F 20.4 °F 23.0 °F 80% 30.06 in 10.0 mi SSW 8.1 mph - N/A   Mostly Cloudy
1:15 AM 28.4 °F 19.7 °F 23.0 °F 80% 30.06 in 10.0 mi SSW 9.2 mph - N/A   Mostly Cloudy
1:35 AM 28.4 °F 21.2 °F 23.0 °F 80% 30.05 in 10.0 mi South 6.9 mph - N/A   Scattered Clouds
1:55 AM 28.4 °F 22.2 °F 23.0 °F 80% 30.04 in 10.0 mi South 5.8 mph - N/A   Mostly Cloudy
2:15 AM 28.4 °F 21.2 °F 23.0 °F 80% 30.03 in 10.0 mi South 6.9 mph - N/A   Overcast
2:35 AM 28.4 °F 20.4 °F 23.0 °F 80% 30.01 in 10.0 mi South 8.1 mph - N/A   Overcast
2:55 AM 28.4 °F 20.4 °F 23.0 °F 80% 30.01 in 10.0 mi South 8.1 mph - N/A   Overcast
3:15 AM 28.4 °F 20.4 °F 23.0 °F 80% 30.00 in 10.0 mi South 8.1 mph - N/A   Mostly Cloudy
3:35 AM 28.4 °F 19.1 °F 23.0 °F 80% 29.99 in 10.0 mi South 10.4 mph - N/A   Mostly Cloudy
3:55 AM 28.4 °F 19.7 °F 23.0 °F 80% 29.98 in 10.0 mi South 9.2 mph - N/A   Overcast
4:15 AM 28.4 °F 20.4 °F 23.0 °F 80% 29.96 in 10.0 mi South 8.1 mph - N/A   Mostly Cloudy
4:35 AM 30.2 °F 21.3 °F 23.0 °F 75% 29.95 in 10.0 mi South 10.4 mph - N/A   Overcast
4:55 AM 30.2 °F 21.9 °F 23.0 °F 75% 29.94 in 10.0 mi South 9.2 mph - N/A   Overcast
5:15 AM 30.2 °F 20.8 °F 23.0 °F 75% 29.93 in 10.0 mi South 11.5 mph - N/A   Overcast
5:35 AM 30.2 °F 20.2 °F 23.0 °F 75% 29.91 in 10.0 mi South 12.7 mph - N/A   Overcast
5:55 AM 30.2 °F 21.3 °F 23.0 °F 75% 29.92 in 10.0 mi SSW 10.4 mph - N/A   Overcast
6:35 AM 30.2 °F 22.6 °F 23.0 °F 75% 29.91 in 10.0 mi SSW 8.1 mph - N/A   Overcast
6:55 AM 30.2 °F 21.9 °F 23.0 °F 75% 29.91 in 10.0 mi SSW 9.2 mph - N/A   Mostly Cloudy
7:15 AM 30.2 °F 23.4 °F 23.0 °F 75% 29.91 in 10.0 mi SSW 6.9 mph - N/A   Mostly Cloudy
7:35 AM 30.2 °F 21.9 °F 23.0 °F 75% 29.91 in 10.0 mi SSW 9.2 mph - N/A   Scattered Clouds
7:55 AM 30.2 °F 21.9 °F 23.0 °F 75% 29.90 in 10.0 mi SSW 9.2 mph - N/A   Clear
8:15 AM 32.0 °F 23.6 °F 23.0 °F 69% 29.90 in 10.0 mi SSW 10.4 mph - N/A   Clear
8:35 AM 32.0 °F 23.6 °F 23.0 °F 69% 29.91 in 10.0 mi SSW 10.4 mph - N/A   Clear
8:55 AM 32.0 °F 23.6 °F 24.8 °F 75% 29.91 in 10.0 mi SW 10.4 mph - N/A   Clear
9:15 AM 32.0 °F 22.5 °F 26.6 °F 80% 29.90 in 10.0 mi SW 12.7 mph - N/A   Clear
9:35 AM 32.0 °F 22.1 °F 26.6 °F 80% 29.90 in 10.0 mi SW 13.8 mph - N/A   Clear
9:55 AM 33.8 °F 23.9 °F 26.6 °F 75% 29.91 in 10.0 mi SW 15.0 mph - N/A   Clear
10:15 AM 35.6 °F 26.6 °F 26.6 °F 70% 29.91 in 10.0 mi SW 13.8 mph 19.6 mph N/A   Clear
10:35 AM 35.6 °F 27.5 °F 26.6 °F 70% 29.91 in 10.0 mi WSW 11.5 mph - N/A   Clear
10:55 AM 37.4 °F 29.8 °F 26.6 °F 65% 29.91 in 10.0 mi WSW 11.5 mph - N/A   Clear
11:15 AM 37.4 °F 28.9 °F 26.6 °F 65% 29.91 in 10.0 mi WSW 13.8 mph - N/A   Clear
11:35 AM 39.2 °F 31.2 °F 26.6 °F 61% 29.90 in 10.0 mi West 13.8 mph - N/A   Clear
11:55 AM 41.0 °F 33.5 °F 26.6 °F 57% 29.89 in 10.0 mi West 13.8 mph 18.4 mph N/A   Clear
12:15 PM 41.0 °F 33.1 °F 26.6 °F 57% 29.89 in 10.0 mi West 15.0 mph 18.4 mph N/A   Clear
12:35 PM 41.0 °F 33.5 °F 26.6 °F 57% 29.88 in 10.0 mi WSW 13.8 mph 17.3 mph N/A   Clear
12:55 PM 42.8 °F 37.0 °F 26.6 °F 53% 29.88 in 10.0 mi West 10.4 mph 17.3 mph N/A   Clear
1:15 PM 42.8 °F 36.6 °F 28.4 °F 57% 29.88 in 10.0 mi WSW 11.5 mph 17.3 mph N/A   Clear
1:35 PM 42.8 °F 36.6 °F 28.4 °F 57% 29.88 in 10.0 mi WSW 11.5 mph 17.3 mph N/A   Clear
1:55 PM 42.8 °F 37.5 °F 28.4 °F 57% 29.88 in 10.0 mi West 9.2 mph - N/A   Clear
2:15 PM 44.6 °F 39.2 °F 28.4 °F 53% 29.88 in 10.0 mi WSW 10.4 mph - N/A   Clear
2:35 PM 44.6 °F 37.8 °F 28.4 °F 53% 29.88 in 10.0 mi WSW 15.0 mph - N/A   Clear
2:55 PM 44.6 °F 37.8 °F 28.4 °F 53% 29.88 in 10.0 mi WSW 15.0 mph 19.6 mph N/A   Clear
3:15 PM 44.6 °F 38.8 °F 28.4 °F 53% 29.88 in 10.0 mi West 11.5 mph - N/A   Clear
3:35 PM 44.6 °F 39.2 °F 28.4 °F 53% 29.89 in 10.0 mi West 10.4 mph - N/A   Clear
3:55 PM 44.6 °F 40.2 °F 28.4 °F 53% 29.89 in 10.0 mi West 8.1 mph - N/A   Clear
4:15 PM 42.8 °F 38.6 °F 30.2 °F 61% 29.90 in 10.0 mi West 6.9 mph - N/A   Clear
4:35 PM 42.8 °F 38.6 °F 30.2 °F 61% 29.90 in 10.0 mi WSW 6.9 mph - N/A   Clear
4:55 PM 39.2 °F 33.6 °F 30.2 °F 70% 29.90 in 10.0 mi WSW 8.1 mph - N/A   Clear
5:15 PM 37.4 °F 34.9 °F 30.2 °F 75% 29.91 in 10.0 mi West 3.5 mph - N/A   Clear
5:35 PM 35.6 °F 30.7 °F 28.4 °F 75% 29.91 in 10.0 mi West 5.8 mph - N/A   Clear
5:55 PM 35.6 °F 29.9 °F 30.2 °F 81% 29.92 in 10.0 mi West 6.9 mph - N/A   Clear
6:15 PM 35.6 °F 30.7 °F 30.2 °F 81% 29.93 in 10.0 mi WSW 5.8 mph - N/A   Clear
6:35 PM 35.6 °F 30.7 °F 28.4 °F 75% 29.94 in 10.0 mi West 5.8 mph - N/A   Clear
6:55 PM 35.6 °F 31.7 °F 28.4 °F 75% 29.95 in 10.0 mi West 4.6 mph - N/A   Clear
7:15 PM 35.6 °F 31.7 °F 28.4 °F 75% 29.97 in 10.0 mi WNW 4.6 mph - N/A   Clear
7:35 PM 37.4 °F - 28.4 °F 70% 29.96 in 10.0 mi Calm Calm - N/A   Clear
7:55 PM 35.6 °F 32.8 °F 26.6 °F 70% 29.96 in 10.0 mi West 3.5 mph - N/A   Clear
8:15 PM 35.6 °F 32.8 °F 26.6 °F 70% 29.97 in 10.0 mi WNW 3.5 mph - N/A   Clear
8:35 PM 33.8 °F 29.6 °F 26.6 °F 75% 29.98 in 10.0 mi WNW 4.6 mph - N/A   Clear
8:55 PM 35.6 °F 32.8 °F 26.6 °F 70% 29.99 in 10.0 mi WNW 3.5 mph - N/A   Clear
9:15 PM 33.8 °F 29.6 °F 26.6 °F 75% 30.00 in 10.0 mi WNW 4.6 mph - N/A   Scattered Clouds
9:35 PM 33.8 °F 30.8 °F 26.6 °F 75% 30.01 in 10.0 mi WNW 3.5 mph - N/A   Scattered Clouds
9:55 PM 35.6 °F 32.8 °F 26.6 °F 70% 30.01 in 10.0 mi WNW 3.5 mph - N/A   Clear
10:15 PM 35.6 °F 32.8 °F 26.6 °F 70% 30.02 in 10.0 mi WNW 3.5 mph - N/A   Mostly Cloudy
10:35 PM 35.6 °F - 28.4 °F 75% 30.02 in 10.0 mi Calm Calm - N/A   Overcast
10:55 PM 35.6 °F - 26.6 °F 70% 30.02 in 10.0 mi Calm Calm - N/A   Overcast
11:15 PM 35.6 °F - 26.6 °F 70% 30.03 in 10.0 mi Calm Calm - N/A   Overcast
11:35 PM 35.6 °F 32.8 °F 28.4 °F 75% 30.03 in 10.0 mi WNW 3.5 mph - N/A   Overcast
11:55 PM 35.6 °F - 28.4 °F 75% 30.03 in 10.0 mi Calm Calm - N/A   Overcast